Regional Weather Roundup
Issued by NWS

Home | Current Version | Previous Version | Text Only | Print | Product List | Glossary Off
Versions: 1 2 3 4 5 6 7 8 9 10 11 12 13 14 15 16 17 18 19 20 21 22 23 24 25 26 27 28 29 30 31 32 33 34 35 36 37 38 39 40 41 42 43 44 45 46 47 48 49 50

000
ASUS43 KMKX 290600
RWRWI

WISCONSIN REGIONAL WEATHER ROUNDUP
NATIONAL WEATHER SERVICE MILWAUKEE/SULLIVAN WI
100 AM CDT MON MAY 29 2017

NOTE: "FAIR" INDICATES FEW OR NO CLOUDS BELOW 12,000 FEET WITH NO
SIGNIFICANT WEATHER AND/OR OBSTRUCTIONS TO VISIBILITY.

WIZ001-002-006>008-014>016-023>028-290700-
NORTHWEST WISCONSIN

CITY           SKY/WX    TMP DP  RH WIND       PRES   REMARKS
SUPERIOR ARPT  NOT AVBL
ASHLAND        MOCLDY    52  47  83 SW9       29.62F
6HR MIN TEMP:  50; 6HR MAX TEMP:  59;

HAYWARD        CLEAR     46  43  89 CALM      29.66F
6HR MIN TEMP:  46; 6HR MAX TEMP:  62; 6HR PCP: TRACE;

SIREN          MOCLDY    52  47  82 W8        29.69S
CUMBERLAND     CLOUDY    52  45  76 W10       29.69S
RICE LAKE      CLOUDY    55  48  77 W9        29.71R
CHETEK         CLOUDY    54  47  79 W5        29.69S
LADYSMITH      CLOUDY    53  51  92 W5        29.69F
EAU CLAIRE     NOT AVBL
MENOMONIE      CLEAR     51  50  95 SW7       29.71S
NEW RICHMOND   CLOUDY    52  51  95 SW7       29.71F
OSCEOLA        CLOUDY    53  53 100 W6        29.74S
$$

WIZ003>005-009-010-017-018-290700-
NORTH CENTRAL WISCONSIN

CITY           SKY/WX    TMP DP  RH WIND       PRES   REMARKS
MANITOWISH WTR PTCLDY    48  48 100 SW5       29.64S
ARBOR VITAE    CLEAR     52  50  92 SW6       29.65R
WOODRUFF       CLEAR     52  50  92 SW6       29.65R
RHINELANDER    CLOUDY    52  48  86 W7        29.67S
6HR MIN TEMP:  47; 6HR MAX TEMP:  66; 6HR PCP: TRACE;

EAGLE RIVER    PTCLDY    49  49  99 SW7       29.64S
LAND O LAKES   MOCLDY    50  50 100 CALM      29.65F
PHILLIPS       MOCLDY    51  49  94 SW6       29.66S
TOMAHAWK       MOCLDY    50  47  88 SW3       29.68S
MEDFORD        PTCLDY    51  47  89 S5        29.68F
MERRILL        CLEAR     49  47  93 W5        29.70R
$$

WIZ029-030-035-036-043>047-290700-
CENTRAL WISCONSIN

CITY           SKY/WX    TMP DP  RH WIND       PRES   REMARKS
WAUSAU         PTCLDY    53  48  83 NW6       29.67F
6HR MIN TEMP:  53; 6HR MAX TEMP:  59; 6HR PCP:  0.01;

MOSINEE        CLOUDY    50  48  93 W5        29.71S
MARSHFIELD     CLOUDY    51  47  86 W3        29.69F
6HR MIN TEMP:  50; 6HR MAX TEMP:  65; 6HR PCP: TRACE;

STEVENS POINT  CLEAR     52  47  82 W5        29.71S
WAUPACA        CLEAR     57  48  73 W5        29.71S
WAUTOMA        CLEAR     51  49  92 CALM      29.72S
6HR MIN TEMP:  51; 6HR MAX TEMP:  70;

WISC RAPIDS    MOCLDY    51  49  92 S3        29.71F
6HR MIN TEMP:  49; 6HR MAX TEMP:  70; 6HR PCP: TRACE;

CAMP DOUGLAS   NOT AVBL
$$

WIZ011>013-019>022-031-037>040-048>050-290700-
NORTHEAST WISCONSIN

CITY           SKY/WX    TMP DP  RH WIND       PRES   REMARKS
ANTIGO         CLEAR     49  48  93 W9        29.69R
SHAWANO        CLEAR     57  49  72 SW3       29.68S
OCONTO         PTCLDY    51  48  88 W5        29.66R
STURGEON BAY   PTCLDY    57  50  77 SW9       29.66S
6HR MIN TEMP:  54; 6HR MAX TEMP:  65;

GREEN BAY      CLEAR     56  50  80 CALM      29.68S
6HR MIN TEMP:  55; 6HR MAX TEMP:  70;

MANITOWOC      NOT AVBL
APPLETON       CLEAR     57  43  58 SW8       29.68S
CLINTONVILLE   CLEAR     55  46  71 W6        29.69S
OSHKOSH        CLEAR     57  47  69 SW3       29.70S
6HR MIN TEMP:  55; 6HR MAX TEMP:  71;

$$

WIZ032>034-041-042-053>061-290700-
SOUTHWEST WISCONSIN

CITY           SKY/WX    TMP DP  RH WIND       PRES   REMARKS
LA CROSSE      CLEAR     58  49  72 NW7       29.72R
6HR MIN TEMP:  58; 6HR MAX TEMP:  74;

SPARTA         MOCLDY    51  48  91 W5        29.74R
VIROQUA        CLEAR     57  44  60 CALM      29.74S
BOSCOBEL       CLEAR     53  48  83 SW6       29.75S
6HR MIN TEMP:  53; 6HR MAX TEMP:  74;

PRAIRIE DU CHI PTCLDY    58  45  61 W9        29.76R
PLATTEVILLE    CLEAR     58  49  71 SW6       29.77S
$$

WIZ056-057-062-063-064-067-068-290700-
SOUTH CENTRAL WISCONSIN

CITY           SKY/WX    TMP DP  RH WIND       PRES   REMARKS
REEDSBURG      PTCLDY    53  48  84 CALM      29.73S
BARABOO/DELLS  CLEAR     52  44  74 CALM      29.73S
LONE ROCK      NOT AVBL
MINERAL POINT  CLEAR     59  45  58 W5        29.76S
MADISON        CLEAR     59  47  64 CALM      29.72F
6HR MIN TEMP:  56; 6HR MAX TEMP:  71;

MIDDLETON      CLEAR     54  48  79 CALM      29.74S
WATERTOWN      CLEAR     53  50  89 CALM      29.72S
MONROE         CLEAR     61  46  59 SW8       29.75F
JANESVILLE     CLEAR     57  54  88 CALM      29.74S
$$

WIZ051-052-058>065-066-070>072-290700-
SOUTHEAST WISCONSIN

CITY           SKY/WX    TMP DP  RH WIND       PRES   REMARKS
MILWAUKEE      PTCLDY    62  50  64 SW6       29.73R
6HR MIN TEMP:  61; 6HR MAX TEMP:  75;

WAUKESHA       CLEAR     55  45  67 CALM      29.74S
MILWAUKEE/TIMM   N/A     54  45  71 SW3       29.73S
RACINE         CLEAR     59  47  64 SW6       29.75S
6HR MIN TEMP:  58; 6HR MAX TEMP:  73;

KENOSHA        CLOUDY    58  49  72 SW6       29.74S
6HR MIN TEMP:  54; 6HR MAX TEMP:  72;

FOND DU LAC    CLEAR     57  45  64 W6        29.71S
6HR MIN TEMP:  57; 6HR MAX TEMP:  72;

SHEBOYGAN      CLEAR     53  50  89 SW7       29.70R
6HR MIN TEMP:  53; 6HR MAX TEMP:  71;

WEST BEND      CLEAR     57  46  67 W5        29.71F
JUNEAU         CLEAR     56  47  70 CALM      29.73S
$$

LSZ147-162-290700-
LAKE SUPERIOR

STATION/POSITION TIME  TEMP    WIND        PRES    WAVE
                       AIR SEA DIR/SP/G            HT/PER
                 (UTC) (F)     (DEG/KT/KT) (MB)    (FT/S)
W MID LAKE BUOY  0450   43 37  310/  8/ 10 1002.4F   0
DEVILS ISLAND    0500   50     230/ 13/ 17 1002.5F
PORT WING        0540   56     220/  7/ 10 1003.4S
SAXON HARBOR     0540   55     200/  6/  8 1002.7F
$$

LMZ867-665-643>646-290700-
LAKE MICHIGAN

STATION/POSITION TIME  TEMP    WIND        PRES    WAVE
                       AIR SEA DIR/SP/G            HT/PER
                 (UTC) (F)     (DEG/KT/KT) (MB)    (FT/S)
CHAMBERS ISLAND  0540   53     210/  4/  6 1003.4F
N MID LAKE BUOY  0450   45 41  180/  6/  6 1004.7F   1
NORTHPORT PIER   0540   49     280/  1/  2 1003.7S
SISTER BAY       0406   50     150/  6/  8   N/A
ALGOMA LAKESHORE 0446             CALM       N/A
KEWAUNEE LAKESHO 0530   55     300/  2/  3 1004.5S
SHEBOYGAN LAKESH 0500   62     240/  9/ 10 1005.0F
PORT WASHINGTON  0530   60     260/  3/  7 1007.1S
ATWATER BUOY     0409   61     240/  6/  8 1006.6F
MILWAUKEE LAKESH 0530   64     240/  8/ 10   N/A
S MID LAKE BUOY  0450   53 47  270/ 10/ 10 1006.8F
KENOSHA   LAKESH 0500   64     240/  5/  7 1007.1
$$

TC  - TEMPERATURE IN CELSIUS
VSB - VISIBILITY IN STATUTE MILES
WCI - WIND CHILL INDEX
HX  - HEAT INDEX




USA.gov is the U.S. government's official web portal to all federal, state and local government web resources and services.